,,,PA_Meas_PMT16A,,PR_Meas_QMR101_102,,RH_Meas_QMH101,,SR_Meas_QMS101,,TA_Meas_QMH101,,GenWind,,GenWind,
date,time,status,PA,status,PR,status,RH,status,SR,status,TA,status,DirAvg,status,SpdAvg,
2012-06-10, 00:00:05,VALID,1004.92,VALID,0,VALID,93.7971,VALID,0,VALID,24.7353,VALID,49,VALID,0,
2012-06-10, 00:01:05,VALID,1004.88,VALID,0,VALID,93.8352,VALID,0,VALID,24.7353,VALID,49,VALID,0,
2012-06-10, 00:02:05,VALID,1004.87,VALID,0,VALID,93.881,VALID,0,VALID,24.7548,VALID,49,VALID,0,
2012-06-10, 00:03:05,VALID,1004.86,VALID,0,VALID,93.9191,VALID,0,VALID,24.7548,VALID,49,VALID,0,
2012-06-10, 00:04:05,VALID,1004.82,VALID,0,VALID,93.9115,VALID,0,VALID,24.7548,VALID,49,VALID,0,
2012-06-10, 00:05:05,VALID,1004.81,VALID,0,VALID,93.9344,VALID,0,VALID,24.7548,VALID,49,VALID,0,
2012-06-10, 00:06:05,VALID,1004.78,VALID,0,VALID,93.9268,VALID,0,VALID,24.7548,VALID,49,VALID,0,
2012-06-10, 00:07:05,VALID,1004.77,VALID,0,VALID,93.9191,VALID,0,VALID,24.7548,VALID,49,VALID,0,
2012-06-10, 00:08:05,VALID,1004.78,VALID,0,VALID,93.9649,VALID,0,VALID,24.7743,VALID,49,VALID,0,
2012-06-10, 00:09:05,VALID,1004.74,VALID,0,VALID,93.9725,VALID,0,VALID,24.7743,VALID,49,VALID,0,
2012-06-10, 00:10:05,VALID,1004.72,VALID,0,VALID,93.9802,VALID,0,VALID,24.7937,VALID,49,VALID,0,
2012-06-10, 00:11:05,VALID,1004.71,VALID,0,VALID,93.9649,VALID,0,VALID,24.7743,VALID,49,VALID,0,
2012-06-10, 00:12:05,VALID,1004.69,VALID,0,VALID,93.9878,VALID,0,VALID,24.7937,VALID,49,VALID,0,
2012-06-10, 00:13:05,VALID,1004.69,VALID,0,VALID,94.0412,VALID,0,VALID,24.7937,VALID,49,VALID,0,
2012-06-10, 00:14:05,VALID,1004.68,VALID,0,VALID,94.0259,VALID,0,VALID,24.8132,VALID,49,VALID,0,
2012-06-10, 00:15:05,VALID,1004.69,VALID,0,VALID,94.0336,VALID,0,VALID,24.8327,VALID,30,VALID,0,
2012-06-10, 00:16:05,VALID,1004.68,VALID,0,VALID,94.0717,VALID,0,VALID,24.8327,VALID,21,VALID,0,
2012-06-10, 00:17:05,VALID,1004.65,VALID,0,VALID,94.0794,VALID,0,VALID,24.8327,VALID,20,VALID,0.542578,
2012-06-10, 00:18:05,VALID,1004.65,VALID,0,VALID,94.0336,VALID,0,VALID,24.8308,VALID,17,VALID,0.603906,
2012-06-10, 00:19:05,VALID,1004.64,VALID,0,VALID,94.0259,VALID,0,VALID,24.893,VALID,17,VALID,0.496094,
2012-06-10, 00:20:05,VALID,1004.65,VALID,0,VALID,94.0336,VALID,0,VALID,24.8522,VALID,17,VALID,0.411719,
2012-06-10, 00:21:05,VALID,1004.64,VALID,0,VALID,93.9954,VALID,0,VALID,24.8522,VALID,17,VALID,0.426562,
2012-06-10, 00:22:05,VALID,1004.62,VALID,0,VALID,94.0031,VALID,0,VALID,24.8503,VALID,17,VALID,0.367969,
2012-06-10, 00:23:05,VALID,1004.62,VALID,0,VALID,94.0259,VALID,0,VALID,24.8716,VALID,17,VALID,0.410937,
2012-06-10, 00:24:05,VALID,1004.57,VALID,0,VALID,94.0488,VALID,0,VALID,24.8503,VALID,17,VALID,0.401563,
2012-06-10, 00:25:05,VALID,1004.57,VALID,0,VALID,94.0565,VALID,0,VALID,24.8503,VALID,17,VALID,0.558203,
2012-06-10, 00:26:05,VALID,1004.59,VALID,0,VALID,94.0488,VALID,0,VALID,24.8503,VALID,17,VALID,0.462109,
2012-06-10, 00:27:05,VALID,1004.56,VALID,0,VALID,94.0412,VALID,0,VALID,24.8697,VALID,17,VALID,0.329297,
2012-06-10, 00:28:05,VALID,1004.58,VALID,0,VALID,94.0717,VALID,0,VALID,24.8697,VALID,17,VALID,0.280078,
2012-06-10, 00:29:05,VALID,1004.59,VALID,0,VALID,94.0717,VALID,0,VALID,24.8697,VALID,17,VALID,0,
2012-06-10, 00:30:05,VALID,1004.61,VALID,0,VALID,94.0641,VALID,0,VALID,24.8892,VALID,17,VALID,0,
2012-06-10, 00:31:05,VALID,1004.59,VALID,0,VALID,94.0641,VALID,0,VALID,24.8911,VALID,17,VALID,0,
2012-06-10, 00:32:05,VALID,1004.63,VALID,0,VALID,94.0488,VALID,0,VALID,24.8911,VALID,17,VALID,0,
2012-06-10, 00:33:05,VALID,1004.6,VALID,0,VALID,94.0336,VALID,0,VALID,24.8892,VALID,17,VALID,0,
2012-06-10, 00:34:05,VALID,1004.6,VALID,0,VALID,94.0336,VALID,0,VALID,24.9106,VALID,17,VALID,0,
2012-06-10, 00:35:05,VALID,1004.6,VALID,0,VALID,94.0259,VALID,0,VALID,24.9106,VALID,17,VALID,0,
2012-06-10, 00:36:05,VALID,1004.6,VALID,0,VALID,94.0031,VALID,0,VALID,24.8911,VALID,17,VALID,0,
2012-06-10, 00:37:05,VALID,1004.59,VALID,0,VALID,93.9649,VALID,0,VALID,24.8697,VALID,17,VALID,0,
2012-06-10, 00:38:05,VALID,1004.63,VALID,0,VALID,93.9497,VALID,0,VALID,24.8697,VALID,17,VALID,0,
2012-06-10, 00:39:05,VALID,1004.61,VALID,0,VALID,93.9725,VALID,0,VALID,24.8911,VALID,17,VALID,0,
2012-06-10, 00:40:05,VALID,1004.64,VALID,0,VALID,93.942,VALID,0,VALID,24.8911,VALID,17,VALID,0,
2012-06-10, 00:41:05,VALID,1004.64,VALID,0,VALID,93.9191,VALID,0,VALID,24.8911,VALID,17,VALID,0,
2012-06-10, 00:42:05,VALID,1004.64,VALID,0,VALID,93.9115,VALID,0,VALID,24.8911,VALID,17,VALID,0,
2012-06-10, 00:43:05,VALID,1004.66,VALID,0,VALID,93.9039,VALID,0,VALID,24.8892,VALID,17,VALID,0,
2012-06-10, 00:44:05,VALID,1004.63,VALID,0,VALID,93.9268,VALID,0,VALID,24.8697,VALID,17,VALID,0,
2012-06-10, 00:45:05,VALID,1004.62,VALID,0,VALID,93.9191,VALID,0,VALID,24.8911,VALID,17,VALID,0,
2012-06-10, 00:46:05,VALID,1004.6,VALID,0,VALID,93.9497,VALID,0,VALID,24.8892,VALID,17,VALID,0,
2012-06-10, 00:47:05,VALID,1004.6,VALID,0,VALID,93.9344,VALID,0,VALID,24.93,VALID,17,VALID,0,
2012-06-10, 00:48:05,VALID,1004.59,VALID,0,VALID,93.9039,VALID,0,VALID,24.9087,VALID,17,VALID,0,
2012-06-10, 00:49:05,VALID,1004.56,VALID,0,VALID,93.8581,VALID,0,VALID,24.9282,VALID,17,VALID,0,
2012-06-10, 00:50:05,VALID,1004.54,VALID,0,VALID,93.8352,VALID,0,VALID,24.969,VALID,17,VALID,0,
2012-06-10, 00:51:05,VALID,1004.53,VALID,0,VALID,93.7818,VALID,0,VALID,24.9476,VALID,17,VALID,0,
2012-06-10, 00:52:05,VALID,1004.52,VALID,0,VALID,93.7361,VALID,0,VALID,24.969,VALID,17,VALID,0,
2012-06-10, 00:53:05,VALID,1004.53,VALID,0,VALID,93.675,VALID,0,VALID,24.969,VALID,17,VALID,0,
2012-06-10, 00:54:05,VALID,1004.51,VALID,0,VALID,93.5987,VALID,0,VALID,24.969,VALID,17,VALID,0,
2012-06-10, 00:55:05,VALID,1004.5,VALID,0,VALID,93.5377,VALID,0,VALID,24.969,VALID,17,VALID,0,
2012-06-10, 00:56:05,VALID,1004.47,VALID,0,VALID,93.5224,VALID,0,VALID,24.969,VALID,17,VALID,0.394141,
2012-06-10, 00:57:05,VALID,1004.46,VALID,0,VALID,93.4919,VALID,0,VALID,24.9495,VALID,17,VALID,0.323828,
2012-06-10, 00:58:05,VALID,1004.44,VALID,0,VALID,93.4767,VALID,0,VALID,24.9282,VALID,17,VALID,0,
2012-06-10, 00:59:05,VALID,1004.42,VALID,0,VALID,93.5072,VALID,0,VALID,24.9495,VALID,17,VALID,0,
2012-06-10, 01:00:05,VALID,1004.36,VALID,0,VALID,93.5148,VALID,0,VALID,24.9495,VALID,17,VALID,0,
2012-06-10, 01:01:05,VALID,1004.34,VALID,0,VALID,93.4767,VALID,0,VALID,24.9495,VALID,17,VALID,0,
2012-06-10, 01:02:05,VALID,1004.32,VALID,0,VALID,93.4843,VALID,0,VALID,24.93,VALID,17,VALID,0,
2012-06-10, 01:03:05,VALID,1004.28,VALID,0,VALID,93.4385,VALID,0,VALID,24.93,VALID,17,VALID,0,
2012-06-10, 01:04:05,VALID,1004.28,VALID,0,VALID,93.4385,VALID,0,VALID,24.93,VALID,17,VALID,0,
2012-06-10, 01:05:05,VALID,1004.28,VALID,0,VALID,93.4233,VALID,0,VALID,24.9106,VALID,17,VALID,0,
2012-06-10, 01:06:05,VALID,1004.26,VALID,0,VALID,93.469,VALID,0,VALID,24.8892,VALID,17,VALID,0,
2012-06-10, 01:07:05,VALID,1004.28,VALID,0,VALID,93.4538,VALID,0,VALID,24.8892,VALID,17,VALID,0,
2012-06-10, 01:08:05,VALID,1004.23,VALID,0,VALID,93.4996,VALID,0,VALID,24.93,VALID,17,VALID,0,
2012-06-10, 01:09:05,VALID,1004.25,VALID,0,VALID,93.469,VALID,0,VALID,24.8892,VALID,17,VALID,0,
2012-06-10, 01:10:05,VALID,1004.28,VALID,0,VALID,93.4538,VALID,0,VALID,24.93,VALID,17,VALID,0,
2012-06-10, 01:11:05,VALID,1004.28,VALID,0,VALID,93.4385,VALID,0,VALID,24.9495,VALID,17,VALID,0,
2012-06-10, 01:12:05,VALID,1004.26,VALID,0,VALID,93.4462,VALID,0,VALID,24.9282,VALID,17,VALID,0,
2012-06-10, 01:13:05,VALID,1004.26,VALID,0,VALID,93.4919,VALID,0,VALID,24.9495,VALID,17,VALID,0,
2012-06-10, 01:14:05,VALID,1004.25,VALID,0,VALID,93.4462,VALID,0,VALID,24.969,VALID,17,VALID,0,
2012-06-10, 01:15:05,VALID,1004.26,VALID,0,VALID,93.3851,VALID,0,VALID,24.9476,VALID,17,VALID,0,
2012-06-10, 01:16:05,VALID,1004.26,VALID,0,VALID,93.3622,VALID,0,VALID,24.9476,VALID,17,VALID,0,
2012-06-10, 01:17:05,VALID,1004.24,VALID,0,VALID,93.347,VALID,0,VALID,24.969,VALID,17,VALID,0,
2012-06-10, 01:18:05,VALID,1004.22,VALID,0,VALID,93.3394,VALID,0,VALID,24.969,VALID,17,VALID,0,
2012-06-10, 01:19:05,VALID,1004.19,VALID,0,VALID,93.2707,VALID,0,VALID,24.969,VALID,17,VALID,0,
2012-06-10, 01:20:05,VALID,1004.21,VALID,0,VALID,93.3088,VALID,0,VALID,24.9282,VALID,17,VALID,0,
2012-06-10, 01:21:05,VALID,1004.23,VALID,0,VALID,93.2936,VALID,0,VALID,24.9476,VALID,17,VALID,0,
2012-06-10, 01:22:05,VALID,1004.21,VALID,0,VALID,93.2631,VALID,0,VALID,24.9495,VALID,17,VALID,0,
2012-06-10, 01:23:05,VALID,1004.2,VALID,0,VALID,93.2936,VALID,0,VALID,24.9476,VALID,17,VALID,0,
2012-06-10, 01:24:05,VALID,1004.17,VALID,0,VALID,93.2631,VALID,0,VALID,24.9476,VALID,17,VALID,0,
2012-06-10, 01:25:05,VALID,1004.15,VALID,0,VALID,93.3088,VALID,0,VALID,24.9495,VALID,17,VALID,0,
2012-06-10, 01:26:05,VALID,1004.13,VALID,0,VALID,93.2936,VALID,0,VALID,24.969,VALID,17,VALID,0,
2012-06-10, 01:27:05,VALID,1004.12,VALID,0,VALID,93.3241,VALID,0,VALID,24.969,VALID,17,VALID,0,
2012-06-10, 01:28:05,VALID,1004.09,VALID,0,VALID,93.3165,VALID,0,VALID,24.9282,VALID,17,VALID,0,
2012-06-10, 01:29:05,VALID,1004.12,VALID,0,VALID,93.3317,VALID,0,VALID,24.9495,VALID,17,VALID,0,
2012-06-10, 01:30:05,VALID,1004.09,VALID,0,VALID,93.3546,VALID,0,VALID,24.9476,VALID,17,VALID,0,
2012-06-10, 01:31:05,VALID,1004.11,VALID,0,VALID,93.3851,VALID,0,VALID,24.969,VALID,17,VALID,0,
2012-06-10, 01:32:05,VALID,1004.13,VALID,0,VALID,93.3851,VALID,0,VALID,24.969,VALID,17,VALID,0,
2012-06-10, 01:33:05,VALID,1004.11,VALID,0,VALID,93.3622,VALID,0,VALID,24.969,VALID,17,VALID,0,
2012-06-10, 01:34:05,VALID,1004.13,VALID,0,VALID,93.3317,VALID,0,VALID,24.9282,VALID,17,VALID,0,
2012-06-10, 01:35:05,VALID,1004.14,VALID,0,VALID,93.347,VALID,0,VALID,24.9709,VALID,17,VALID,0,
2012-06-10, 01:36:05,VALID,1004.11,VALID,0,VALID,93.3851,VALID,0,VALID,24.9282,VALID,17,VALID,0,
2012-06-10, 01:37:05,VALID,1004.12,VALID,0,VALID,93.4156,VALID,0,VALID,24.9476,VALID,17,VALID,0,
2012-06-10, 01:38:05,VALID,1004.09,VALID,0,VALID,93.3928,VALID,0,VALID,24.9495,VALID,17,VALID,0,
2012-06-10, 01:39:05,VALID,1004.07,VALID,0,VALID,93.408,VALID,0,VALID,24.9476,VALID,17,VALID,0,
2012-06-10, 01:40:05,VALID,1004.05,VALID,0,VALID,93.4156,VALID,0,VALID,24.9476,VALID,17,VALID,0,
2012-06-10, 01:41:05,VALID,1004.05,VALID,0,VALID,93.3699,VALID,0,VALID,24.9282,VALID,17,VALID,0,
2012-06-10, 01:42:05,VALID,1004.06,VALID,0,VALID,93.3088,VALID,0,VALID,24.9087,VALID,17,VALID,0,
2012-06-10, 01:43:05,VALID,1004.03,VALID,0,VALID,93.3165,VALID,0,VALID,24.93,VALID,16,VALID,0,
2012-06-10, 01:44:05,VALID,1004.05,VALID,0,VALID,93.3012,VALID,0,VALID,24.9106,VALID,14,VALID,0.646094,
2012-06-10, 01:45:05,VALID,1004.03,VALID,0,VALID,93.3165,VALID,0,VALID,24.8697,VALID,14,VALID,0.608203,
2012-06-10, 01:46:05,VALID,1004.02,VALID,0,VALID,93.2478,VALID,0,VALID,24.8697,VALID,358,VALID,0.775391,
2012-06-10, 01:47:05,VALID,1004.01,VALID,0,VALID,93.2478,VALID,0,VALID,24.8716,VALID,345,VALID,0.701563,
2012-06-10, 01:48:05,VALID,1004,VALID,0,VALID,93.2325,VALID,0,VALID,24.8697,VALID,340,VALID,0.619531,
2012-06-10, 01:49:05,VALID,1003.98,VALID,0,VALID,93.1868,VALID,0,VALID,24.8892,VALID,343,VALID,0.787891,
2012-06-10, 01:50:05,VALID,1003.99,VALID,0,VALID,93.0418,VALID,0,VALID,24.9087,VALID,350,VALID,0.761719,
2012-06-10, 01:51:05,VALID,1003.98,VALID,0,VALID,92.9579,VALID,0,VALID,24.9495,VALID,347,VALID,0.599219,
2012-06-10, 01:52:05,VALID,1003.98,VALID,0,VALID,92.8282,VALID,0,VALID,24.9476,VALID,352,VALID,0.691406,
2012-06-10, 01:53:05,VALID,1003.98,VALID,0,VALID,92.6909,VALID,0,VALID,24.969,VALID,352,VALID,0.525,
2012-06-10, 01:54:05,VALID,1003.99,VALID,0,VALID,92.5383,VALID,0,VALID,24.9885,VALID,333,VALID,0.573047,
2012-06-10, 01:55:05,VALID,1004.02,VALID,0,VALID,92.5231,VALID,0,VALID,25.006,VALID,335,VALID,0.0824219,
2012-06-10, 01:56:05,VALID,1003.98,VALID,0,VALID,92.4163,VALID,0,VALID,24.9652,VALID,341,VALID,0.298047,
2012-06-10, 01:57:05,VALID,1003.99,VALID,0,VALID,92.34,VALID,0,VALID,25.0255,VALID,356,VALID,0.417188,
2012-06-10, 01:58:05,VALID,1004,VALID,0,VALID,92.1721,VALID,0,VALID,25.045,VALID,350,VALID,0.526953,
2012-06-10, 01:59:05,VALID,1004.02,VALID,0,VALID,92.0424,VALID,0,VALID,25.0663,VALID,355,VALID,0.452734,
2012-06-10, 02:00:05,VALID,1004,VALID,0,VALID,91.7907,VALID,0,VALID,25.0839,VALID,353,VALID,0.651172,
2012-06-10, 02:01:05,VALID,1004.05,VALID,0,VALID,91.7525,VALID,0,VALID,25.0839,VALID,353,VALID,0.0386719,
2012-06-10, 02:02:05,VALID,1003.99,VALID,0,VALID,91.722,VALID,0,VALID,25.1034,VALID,353,VALID,0.0183594,
2012-06-10, 02:03:05,VALID,1003.99,VALID,0,VALID,91.6457,VALID,0,VALID,25.1229,VALID,353,VALID,0.194141,
2012-06-10, 02:04:05,VALID,1003.97,VALID,0,VALID,91.6,VALID,0,VALID,25.1248,VALID,305,VALID,0.0195313,
2012-06-10, 02:05:05,VALID,1003.99,VALID,0,VALID,91.4474,VALID,0,VALID,25.1248,VALID,355,VALID,0.878125,
2012-06-10, 02:06:05,VALID,1003.98,VALID,0,VALID,91.3711,VALID,0,VALID,25.1229,VALID,308,VALID,0.324609,
2012-06-10, 02:07:05,VALID,1003.97,VALID,0,VALID,91.3177,VALID,0,VALID,25.1442,VALID,351,VALID,0.548828,
2012-06-10, 02:08:05,VALID,1003.98,VALID,0,VALID,91.2643,VALID,0,VALID,25.1637,VALID,346,VALID,0.466406,
2012-06-10, 02:09:05,VALID,1003.98,VALID,0,VALID,91.1728,VALID,0,VALID,25.1423,VALID,4,VALID,0.813281,
2012-06-10, 02:10:05,VALID,1003.98,VALID,0,VALID,91.0888,VALID,0,VALID,25.1832,VALID,346,VALID,0.500391,
2012-06-10, 02:11:05,VALID,1004,VALID,0,VALID,91.0888,VALID,0,VALID,25.1813,VALID,351,VALID,0.383203,
2012-06-10, 02:12:05,VALID,1004,VALID,0,VALID,91.0583,VALID,0,VALID,25.1618,VALID,296,VALID,0.814453,
2012-06-10, 02:13:05,VALID,1004.03,VALID,0,VALID,91.0278,VALID,0.0815089,VALID,25.2027,VALID,293,VALID,0.730469,
2012-06-10, 02:14:05,VALID,1004.01,VALID,0,VALID,91.127,VALID,0,VALID,25.1813,VALID,285,VALID,0.517578,
2012-06-10, 02:15:05,VALID,1004.09,VALID,0,VALID,91.0354,VALID,0,VALID,25.1832,VALID,288,VALID,1.18359,
2012-06-10, 02:16:05,VALID,1004.06,VALID,0,VALID,91.0278,VALID,0,VALID,25.1423,VALID,286,VALID,0.768359,
2012-06-10, 02:17:05,VALID,1004.1,VALID,0,VALID,91.1117,VALID,0,VALID,25.1229,VALID,303,VALID,0.124219,
2012-06-10, 02:18:05,VALID,1004.08,VALID,0,VALID,91.1499,VALID,0,VALID,25.1034,VALID,345,VALID,0.980078,
2012-06-10, 02:19:05,VALID,1004.1,VALID,0,VALID,91.2719,VALID,0,VALID,25.0839,VALID,350,VALID,0.579297,
2012-06-10, 02:20:05,VALID,1004.12,VALID,0,VALID,91.3253,VALID,0,VALID,25.0858,VALID,350,VALID,0.820313,
2012-06-10, 02:21:04,VALID,1004.12,VALID,0,VALID,91.4474,VALID,0,VALID,25.045,VALID,348,VALID,0.705469,
2012-06-10, 02:22:04,VALID,1004.17,VALID,0,VALID,91.5237,VALID,0,VALID,25.045,VALID,345,VALID,0.630469,
2012-06-10, 02:23:04,VALID,1004.18,VALID,0,VALID,91.6381,VALID,0,VALID,25.0255,VALID,337,VALID,0.673047,
2012-06-10, 02:24:04,VALID,1004.19,VALID,0,VALID,91.8212,VALID,0,VALID,25.045,VALID,283,VALID,0.414453,
2012-06-10, 02:25:04,VALID,1004.18,VALID,0,VALID,91.8746,VALID,0,VALID,25.0255,VALID,340,VALID,0.413281,
2012-06-10, 02:26:04,VALID,1004.15,VALID,0,VALID,91.9662,VALID,0,VALID,25.0858,VALID,31,VALID,0.560156,
2012-06-10, 02:27:04,VALID,1004.14,VALID,0,VALID,92.0501,VALID,0,VALID,25.1053,VALID,303,VALID,0.982031,
2012-06-10, 02:28:04,VALID,1004.16,VALID,0,VALID,92.0653,VALID,0,VALID,25.1248,VALID,47,VALID,0.602344,
2012-06-10, 02:29:04,VALID,1004.14,VALID,0,VALID,92.0806,VALID,0,VALID,25.1423,VALID,286,VALID,1.06328,
2012-06-10, 02:30:04,VALID,1004.15,VALID,0,VALID,91.867,VALID,0,VALID,25.1618,VALID,301,VALID,1.55547,
2012-06-10, 02:31:04,VALID,1004.17,VALID,0,VALID,91.8212,VALID,0,VALID,25.2202,VALID,1,VALID,0.716016,
2012-06-10, 02:32:04,VALID,1004.2,VALID,0,VALID,91.6686,VALID,0,VALID,25.2611,VALID,1,VALID,1.03164,
2012-06-10, 02:33:04,VALID,1004.23,VALID,0,VALID,91.5237,VALID,0,VALID,25.2806,VALID,345,VALID,0.907422,
2012-06-10, 02:34:04,VALID,1004.24,VALID,0,VALID,91.4169,VALID,0,VALID,25.2611,VALID,3,VALID,0.871484,
2012-06-10, 02:35:04,VALID,1004.24,VALID,0,VALID,91.4474,VALID,0,VALID,25.2397,VALID,349,VALID,0.427344,
2012-06-10, 02:36:04,VALID,1004.24,VALID,0,VALID,91.3482,VALID,0,VALID,25.2611,VALID,144,VALID,0.8,
2012-06-10, 02:37:04,VALID,1004.27,VALID,0,VALID,91.1041,VALID,0,VALID,25.2397,VALID,312,VALID,0.874219,
2012-06-10, 02:38:04,VALID,1004.25,VALID,0,VALID,90.12,VALID,0,VALID,25.2221,VALID,277,VALID,1.72305,
2012-06-10, 02:39:04,VALID,1004.27,VALID,0,VALID,89.6317,VALID,0,VALID,25.2027,VALID,280,VALID,1.5793,
2012-06-10, 02:40:04,VALID,1004.29,VALID,0,VALID,89.3494,VALID,0,VALID,25.2027,VALID,309,VALID,1.73516,
2012-06-10, 02:41:04,VALID,1004.31,VALID,0,VALID,88.6323,VALID,0,VALID,25.1618,VALID,338,VALID,1.56836,
2012-06-10, 02:42:04,VALID,1004.31,VALID,0,VALID,88.0907,VALID,0,VALID,25.1637,VALID,291,VALID,1.93711,
2012-06-10, 02:43:04,VALID,1004.32,VALID,0,VALID,88.3424,VALID,0,VALID,25.1637,VALID,341,VALID,0.973047,
2012-06-10, 02:44:04,VALID,1004.33,VALID,0,VALID,88.0296,VALID,0,VALID,25.1442,VALID,290,VALID,0.883984,
2012-06-10, 02:45:04,VALID,1004.37,VALID,0,VALID,88.1365,VALID,0,VALID,25.1442,VALID,308,VALID,1.21094,
2012-06-10, 02:46:04,VALID,1004.4,VALID,0,VALID,87.6711,VALID,0,VALID,25.1248,VALID,322,VALID,1.25742,
2012-06-10, 02:47:04,VALID,1004.42,VALID,0,VALID,86.9845,VALID,0,VALID,25.1053,VALID,312,VALID,1.68047,
2012-06-10, 02:48:04,VALID,1004.41,VALID,0,VALID,86.8624,VALID,0,VALID,25.0858,VALID,302,VALID,1.32617,
2012-06-10, 02:49:04,VALID,1004.45,VALID,0,VALID,86.3589,VALID,0,VALID,25.0663,VALID,301,VALID,1.9707,
2012-06-10, 02:50:04,VALID,1004.45,VALID,0,VALID,86.2292,VALID,0,VALID,25.0663,VALID,287,VALID,2.30938,
2012-06-10, 02:51:04,VALID,1004.49,VALID,0,VALID,85.7334,VALID,0,VALID,25.0469,VALID,288,VALID,1.9375,
2012-06-10, 02:52:04,VALID,1004.49,VALID,0,VALID,85.6113,VALID,0,VALID,25.0274,VALID,290,VALID,2.35664,
2012-06-10, 02:53:04,VALID,1004.48,VALID,0,VALID,85.802,VALID,0,VALID,25.0488,VALID,291,VALID,1.625,
2012-06-10, 02:54:04,VALID,1004.47,VALID,0,VALID,85.8478,VALID,0.0815089,VALID,25.006,VALID,273,VALID,1.36836,
2012-06-10, 02:55:04,VALID,1004.49,VALID,0,VALID,85.8249,VALID,0,VALID,24.9866,VALID,303,VALID,2.21445,
2012-06-10, 02:56:04,VALID,1004.44,VALID,0,VALID,85.7486,VALID,0,VALID,24.9885,VALID,288,VALID,2.50742,
2012-06-10, 02:57:04,VALID,1004.37,VALID,0,VALID,86.0461,VALID,0.0815089,VALID,24.9457,VALID,294,VALID,0.754297,
2012-06-10, 02:58:04,VALID,1004.38,VALID,0,VALID,86.4352,VALID,0.0815089,VALID,24.9476,VALID,253,VALID,0.969531,
2012-06-10, 02:59:04,VALID,1004.36,VALID,0,VALID,86.6031,VALID,0.0815089,VALID,24.9282,VALID,278,VALID,1.19297,
2012-06-10, 03:00:04,VALID,1004.37,VALID,0,VALID,86.8319,VALID,0,VALID,24.8873,VALID,267,VALID,1.24453,
2012-06-10, 03:01:04,VALID,1004.31,VALID,0,VALID,86.8319,VALID,0,VALID,24.8484,VALID,283,VALID,1.46758,
2012-06-10, 03:02:04,VALID,1004.31,VALID,0,VALID,87.0532,VALID,0,VALID,24.8503,VALID,288,VALID,1.40977,
2012-06-10, 03:03:04,VALID,1004.3,VALID,0,VALID,87.221,VALID,0,VALID,24.8522,VALID,280,VALID,2.50469,
2012-06-10, 03:04:04,VALID,1004.31,VALID,0,VALID,87.3736,VALID,0,VALID,24.7919,VALID,297,VALID,1.65469,
2012-06-10, 03:05:04,VALID,1004.29,VALID,0,VALID,87.5109,VALID,0.0815089,VALID,24.8113,VALID,286,VALID,1.51172,
2012-06-10, 03:06:04,VALID,1004.29,VALID,0,VALID,87.6177,VALID,0,VALID,24.7919,VALID,291,VALID,2.01563,
2012-06-10, 03:07:04,VALID,1004.35,VALID,0,VALID,87.8694,VALID,0,VALID,24.7724,VALID,295,VALID,2.9043,
2012-06-10, 03:08:04,VALID,1004.38,VALID,0,VALID,87.9534,VALID,0,VALID,24.7316,VALID,293,VALID,2.54883,
2012-06-10, 03:09:04,VALID,1004.45,VALID,0,VALID,88.2356,VALID,0,VALID,24.7353,VALID,281,VALID,2.75859,
2012-06-10, 03:10:04,VALID,1004.46,VALID,0,VALID,88.4111,VALID,0,VALID,24.7353,VALID,297,VALID,0.986719,
2012-06-10, 03:11:04,VALID,1004.53,VALID,0,VALID,88.6323,VALID,0,VALID,24.7159,VALID,290,VALID,1.63672,
2012-06-10, 03:12:04,VALID,1004.58,VALID,0,VALID,88.8383,VALID,0,VALID,24.7353,VALID,293,VALID,2.52031,
2012-06-10, 03:13:04,VALID,1004.61,VALID,0,VALID,89.0061,VALID,0,VALID,24.7159,VALID,351,VALID,0.591016,
2012-06-10, 03:14:04,VALID,1004.64,VALID,0,VALID,89.1969,VALID,0,VALID,24.7372,VALID,288,VALID,1.1418,
2012-06-10, 03:15:04,VALID,1004.59,VALID,0,VALID,89.3037,VALID,0,VALID,24.714,VALID,279,VALID,1.79102,
2012-06-10, 03:16:04,VALID,1004.61,VALID,0,VALID,89.5707,VALID,0,VALID,24.7159,VALID,266,VALID,2.80312,
2012-06-10, 03:17:04,VALID,1004.64,VALID,0,VALID,89.7767,VALID,0,VALID,24.6964,VALID,287,VALID,2.45195,
2012-06-10, 03:18:04,VALID,1004.59,VALID,0,VALID,89.8682,VALID,0,VALID,24.6769,VALID,283,VALID,1.92188,
2012-06-10, 03:19:04,VALID,1004.58,VALID,0,VALID,90.036,VALID,0,VALID,24.638,VALID,291,VALID,3.29961,
2012-06-10, 03:20:04,VALID,1004.52,VALID,0,VALID,90.4175,VALID,0,VALID,24.599,VALID,281,VALID,1.82305,
2012-06-10, 03:21:04,VALID,1004.47,VALID,0,VALID,90.7074,VALID,0,VALID,24.5796,VALID,301,VALID,2.96094,
2012-06-10, 03:22:04,VALID,1004.42,VALID,0,VALID,91.0659,VALID,0,VALID,24.5212,VALID,318,VALID,1.73203,
2012-06-10, 03:23:04,VALID,1004.39,VALID,0,VALID,91.2643,VALID,0,VALID,24.4609,VALID,297,VALID,2.17305,
2012-06-10, 03:24:04,VALID,1004.41,VALID,0,VALID,91.5161,VALID,0,VALID,24.4414,VALID,276,VALID,2.48789,
2012-06-10, 03:25:04,VALID,1004.35,VALID,0,VALID,91.5466,VALID,0,VALID,24.4238,VALID,284,VALID,1.83008,
2012-06-10, 03:26:04,VALID,1004.42,VALID,0,VALID,91.8059,VALID,0,VALID,24.383,VALID,306,VALID,1.16445,
2012-06-10, 03:27:04,VALID,1004.39,VALID,0,VALID,91.7144,VALID,0,VALID,24.3849,VALID,267,VALID,2.17188,
2012-06-10, 03:28:04,VALID,1004.43,VALID,0,VALID,91.6534,VALID,0,VALID,24.3459,VALID,293,VALID,3.26953,
2012-06-10, 03:29:04,VALID,1004.46,VALID,0,VALID,91.9585,VALID,0,VALID,24.3459,VALID,239,VALID,0.885547,
2012-06-10, 03:30:04,VALID,1004.47,VALID,0,VALID,91.7068,VALID,0,VALID,24.3265,VALID,270,VALID,1.54805,
2012-06-10, 03:31:04,VALID,1004.49,VALID,0,VALID,91.6686,VALID,0,VALID,24.307,VALID,296,VALID,1.79258,
2012-06-10, 03:32:04,VALID,1004.51,VALID,0,VALID,91.8288,VALID,0,VALID,24.307,VALID,308,VALID,0.784766,
2012-06-10, 03:33:04,VALID,1004.54,VALID,0,VALID,91.7907,VALID,0,VALID,24.2875,VALID,296,VALID,1.23008,
2012-06-10, 03:34:04,VALID,1004.57,VALID,0,VALID,92.0043,VALID,0,VALID,24.3088,VALID,297,VALID,0.917969,
2012-06-10, 03:35:04,VALID,1004.61,VALID,0,VALID,91.989,VALID,0,VALID,24.2875,VALID,279,VALID,2.49883,
2012-06-10, 03:36:04,VALID,1004.58,VALID,0,VALID,91.9433,VALID,0,VALID,24.2875,VALID,319,VALID,2.17422,
2012-06-10, 03:37:04,VALID,1004.61,VALID,0,VALID,92.0577,VALID,0,VALID,24.2681,VALID,298,VALID,2.60547,
2012-06-10, 03:38:04,VALID,1004.62,VALID,0,VALID,92.2408,VALID,0,VALID,24.2875,VALID,301,VALID,1.25859,
2012-06-10, 03:39:04,VALID,1004.65,VALID,0,VALID,92.34,VALID,0,VALID,24.2875,VALID,301,VALID,1.39336,
2012-06-10, 03:40:04,VALID,1004.63,VALID,0,VALID,92.1111,VALID,0,VALID,24.2273,VALID,291,VALID,1.50586,
2012-06-10, 03:41:04,VALID,1004.65,VALID,0,VALID,92.2103,VALID,0,VALID,24.2699,VALID,285,VALID,1.73438,
2012-06-10, 03:42:04,VALID,1004.68,VALID,0,VALID,92.4163,VALID,0,VALID,24.2699,VALID,296,VALID,1.13125,
2012-06-10, 03:43:04,VALID,1004.65,VALID,0,VALID,92.4468,VALID,0,VALID,24.2291,VALID,305,VALID,1.48633,
2012-06-10, 03:44:04,VALID,1004.64,VALID,0,VALID,92.2255,VALID,0,VALID,24.1707,VALID,288,VALID,2.18281,
2012-06-10, 03:45:04,VALID,1004.67,VALID,0,VALID,92.4773,VALID,0,VALID,24.1513,VALID,310,VALID,0.628516,
2012-06-10, 03:46:04,VALID,1004.68,VALID,0,VALID,92.6222,VALID,0,VALID,24.1318,VALID,298,VALID,0.8,
2012-06-10, 03:47:04,VALID,1004.7,VALID,0,VALID,92.4315,VALID,0,VALID,24.0929,VALID,282,VALID,1.19805,
2012-06-10, 03:48:04,VALID,1004.67,VALID,0.5,VALID,92.4925,VALID,0,VALID,24.0539,VALID,300,VALID,1.11133,
2012-06-10, 03:49:04,VALID,1004.69,VALID,0,VALID,92.5154,VALID,0,VALID,24.0345,VALID,268,VALID,1.36641,
2012-06-10, 03:50:04,VALID,1004.66,VALID,0,VALID,92.5841,VALID,0,VALID,23.9742,VALID,326,VALID,0.826953,
2012-06-10, 03:51:04,VALID,1004.69,VALID,0,VALID,92.7367,VALID,0,VALID,23.9566,VALID,314,VALID,1.20313,